Wetterdaten: Woche 01.02.10 - 07.02.10 (KW5)
Datum Zeit Temperatur Luftfeuchte Luftdruck Niederschlag Windrichtung Wind
01.02.2010 00:00 -4,5 C 93 % 1012,2 hPa 0,0 l/m SW 7,6 km/h (2 Bft)
01.02.2010 01:00 -4,7 C 93 % 1012,4 hPa 0,0 l/m SW 4,1 km/h (1 Bft)
01.02.2010 02:00 -4,5 C 93 % 1012,7 hPa 0,0 l/m W 6,5 km/h (2 Bft)
01.02.2010 03:00 -4,2 C 92 % 1012,6 hPa 0,0 l/m W-SW 8,6 km/h (2 Bft)
01.02.2010 04:00 -4,3 C 91 % 1012,4 hPa 0,0 l/m W-SW 8,7 km/h (2 Bft)
01.02.2010 05:00 -4,5 C 91 % 1012,6 hPa 0,0 l/m SW 9,5 km/h (2 Bft)
01.02.2010 06:00 -4,5 C 91 % 1012,8 hPa 0,0 l/m W-SW 7,8 km/h (2 Bft)
01.02.2010 07:00 -4,5 C 90 % 1013,1 hPa 0,0 l/m SW 10,7 km/h (2 Bft)
01.02.2010 08:00 -4,2 C 90 % 1013,7 hPa 0,0 l/m W-SW 14,9 km/h (3 Bft)
01.02.2010 09:00 -3,6 C 87 % 1014,0 hPa 0,0 l/m SW 12,8 km/h (3 Bft)
01.02.2010 10:00 -3,3 C 83 % 1014,1 hPa 0,0 l/m W 21,4 km/h (4 Bft)
01.02.2010 11:00 -2,7 C 76 % 1014,0 hPa 0,0 l/m W-SW 24,5 km/h (4 Bft)
01.02.2010 12:00 -2,4 C 72 % 1013,7 hPa 0,0 l/m SW 31,4 km/h (5 Bft)
01.02.2010 13:00 -2,4 C 72 % 1013,2 hPa 0,0 l/m W-SW 31,5 km/h (5 Bft)
01.02.2010 14:00 -2,7 C 74 % 1013,2 hPa 0,0 l/m SW 30,9 km/h (5 Bft)
01.02.2010 15:00 -3,5 C 83 % 1013,5 hPa 0,0 l/m W-SW 31,5 km/h (5 Bft)
01.02.2010 16:00 -4,2 C 90 % 1014,0 hPa 0,2 l/m SW 26,6 km/h (4 Bft)
01.02.2010 17:00 -4,1 C 88 % 1014,8 hPa 0,0 l/m SW 28,0 km/h (4 Bft)
01.02.2010 18:00 -4,1 C 89 % 1015,6 hPa 0,0 l/m W-SW 21,6 km/h (4 Bft)
01.02.2010 19:00 -4,2 C 89 % 1016,3 hPa 0,0 l/m W-SW 20,4 km/h (4 Bft)
01.02.2010 20:00 -4,1 C 89 % 1016,5 hPa 0,0 l/m W-SW 20,6 km/h (4 Bft)
01.02.2010 21:00 -3,7 C 89 % 1016,9 hPa 0,0 l/m W-SW 22,2 km/h (4 Bft)
01.02.2010 22:00 -3,3 C 88 % 1017,0 hPa 0,0 l/m W-SW 25,1 km/h (4 Bft)
01.02.2010 23:00 -3,3 C 87 % 1017,2 hPa 0,0 l/m W-SW 27,4 km/h (4 Bft)
02.02.2010 00:00 -3,0 C 88 % 1017,5 hPa 0,0 l/m W 29,9 km/h (5 Bft)
02.02.2010 01:00 -2,8 C 88 % 1018,0 hPa 0,0 l/m W 31,4 km/h (5 Bft)
02.02.2010 02:00 -2,7 C 88 % 1018,9 hPa 0,0 l/m W 26,3 km/h (4 Bft)
02.02.2010 03:00 -3,0 C 89 % 1019,4 hPa 0,0 l/m W 29,0 km/h (5 Bft)
02.02.2010 04:00 -2,8 C 89 % 1019,8 hPa 0,0 l/m W 26,1 km/h (4 Bft)
02.02.2010 05:00 -2,9 C 89 % 1020,2 hPa 0,0 l/m SW 22,6 km/h (4 Bft)
02.02.2010 06:00 -3,0 C 89 % 1020,7 hPa 0,0 l/m W-SW 22,9 km/h (4 Bft)
02.02.2010 07:00 -3,1 C 88 % 1020,6 hPa 0,0 l/m W-SW 23,3 km/h (4 Bft)
02.02.2010 08:00 -3,3 C 87 % 1020,9 hPa 0,0 l/m W-SW 24,4 km/h (4 Bft)
02.02.2010 09:00 -2,6 C 84 % 1020,9 hPa 0,0 l/m W-SW 21,7 km/h (4 Bft)
02.02.2010 10:00 -1,5 C 80 % 1020,7 hPa 0,0 l/m SW 29,8 km/h (5 Bft)
02.02.2010 11:00 -0,7 C 78 % 1020,1 hPa 0,0 l/m SW 29,5 km/h (5 Bft)
02.02.2010 12:00 0,0 C 76 % 1019,0 hPa 0,0 l/m W-SW 28,2 km/h (4 Bft)
02.02.2010 13:00 0,6 C 72 % 1017,9 hPa 0,0 l/m W-SW 28,3 km/h (4 Bft)
02.02.2010 14:00 0,5 C 73 % 1017,5 hPa 0,0 l/m SW 27,8 km/h (4 Bft)
02.02.2010 15:00 0,2 C 74 % 1016,8 hPa 0,0 l/m W-SW 28,8 km/h (5 Bft)
02.02.2010 16:00 0,1 C 78 % 1016,0 hPa 0,0 l/m W-SW 32,0 km/h (5 Bft)
02.02.2010 17:00 0,0 C 78 % 1015,6 hPa 0,0 l/m SW 33,4 km/h (5 Bft)
02.02.2010 18:00 0,2 C 76 % 1015,2 hPa 0,0 l/m W-SW 36,7 km/h (5 Bft)
02.02.2010 19:00 0,2 C 77 % 1014,6 hPa 0,0 l/m W 34,6 km/h (5 Bft)
02.02.2010 20:00 0,3 C 78 % 1013,9 hPa 0,0 l/m SW 34,1 km/h (5 Bft)
02.02.2010 21:00 -0,2 C 82 % 1012,9 hPa 0,0 l/m SW 33,0 km/h (5 Bft)
02.02.2010 22:00 0,3 C 82 % 1012,3 hPa 0,0 l/m SW 39,6 km/h (6 Bft)
02.02.2010 23:00 0,3 C 87 % 1011,6 hPa 0,0 l/m W-SW 41,2 km/h (6 Bft)
03.02.2010 00:00 0,2 C 90 % 1011,2 hPa 0,0 l/m SW 43,9 km/h (6 Bft)
03.02.2010 01:00 0,4 C 92 % 1010,9 hPa 0,0 l/m SW 45,9 km/h (6 Bft)
03.02.2010 02:00 0,7 C 92 % 1010,8 hPa 0,0 l/m W-SW 47,3 km/h (6 Bft)
03.02.2010 03:00 1,1 C 91 % 1010,2 hPa 0,0 l/m W 47,9 km/h (6 Bft)
03.02.2010 04:00 1,2 C 92 % 1009,7 hPa 0,2 l/m W-SW 47,1 km/h (6 Bft)
03.02.2010 05:00 1,3 C 91 % 1009,3 hPa 0,0 l/m W-SW 44,9 km/h (6 Bft)
03.02.2010 06:00 1,3 C 94 % 1009,4 hPa 0,6 l/m W-SW 43,3 km/h (6 Bft)
03.02.2010 07:00 1,2 C 94 % 1009,9 hPa 0,4 l/m W-SW 34,5 km/h (5 Bft)
03.02.2010 08:00 1,3 C 94 % 1010,6 hPa 0,2 l/m SW 35,4 km/h (5 Bft)
03.02.2010 09:00 1,5 C 94 % 1011,1 hPa 0,2 l/m W-SW 35,1 km/h (5 Bft)
03.02.2010 10:00 1,7 C 94 % 1011,6 hPa 0,4 l/m SW 33,3 km/h (5 Bft)
03.02.2010 11:00 2,1 C 93 % 1012,1 hPa 0,2 l/m W-SW 30,7 km/h (5 Bft)
03.02.2010 12:00 2,5 C 93 % 1012,5 hPa 0,0 l/m W 32,7 km/h (5 Bft)
03.02.2010 13:00 2,9 C 91 % 1012,9 hPa 0,0 l/m W 35,8 km/h (5 Bft)
03.02.2010 14:00 3,5 C 89 % 1013,0 hPa 0,0 l/m W-SW 31,3 km/h (5 Bft)
03.02.2010 15:00 3,8 C 88 % 1013,7 hPa 0,0 l/m W 33,1 km/h (5 Bft)
03.02.2010 16:00 3,7 C 88 % 1014,4 hPa 0,0 l/m W-SW 31,9 km/h (5 Bft)
03.02.2010 17:00 3,6 C 89 % 1015,0 hPa 0,0 l/m W-SW 27,6 km/h (4 Bft)
03.02.2010 18:00 3,7 C 88 % 1015,4 hPa 0,0 l/m W 25,1 km/h (4 Bft)
03.02.2010 19:00 3,4 C 88 % 1015,9 hPa 0,0 l/m W-SW 26,9 km/h (4 Bft)
03.02.2010 20:00 3,1 C 89 % 1016,4 hPa 0,0 l/m W-SW 20,2 km/h (4 Bft)
03.02.2010 21:00 2,8 C 91 % 1016,9 hPa 0,0 l/m W-SW 19,0 km/h (3 Bft)
03.02.2010 22:00 2,7 C 92 % 1017,1 hPa 0,0 l/m W-SW 15,0 km/h (3 Bft)
03.02.2010 23:00 2,8 C 92 % 1017,0 hPa 0,0 l/m S 12,3 km/h (3 Bft)
04.02.2010 00:00 2,2 C 91 % 1017,1 hPa 0,0 l/m S 2,4 km/h (1 Bft)
04.02.2010 01:00 1,1 C 92 % 1016,8 hPa 0,0 l/m W-SW 4,3 km/h (1 Bft)
04.02.2010 02:00 0,5 C 94 % 1016,8 hPa 0,0 l/m SW 3,6 km/h (1 Bft)
04.02.2010 03:00 -0,4 C 94 % 1016,6 hPa 0,0 l/m SW 1,2 km/h (1 Bft)
04.02.2010 04:00 -1,5 C 94 % 1016,5 hPa 0,0 l/m N 0,5 km/h (0 Bft)
04.02.2010 05:00 -2,2 C 95 % 1016,6 hPa 0,0 l/m N 0,4 km/h (0 Bft)
04.02.2010 06:00 -2,5 C 95 % 1016,4 hPa 0,0 l/m N 0,4 km/h (0 Bft)
04.02.2010 07:00 -2,8 C 96 % 1016,3 hPa 0,0 l/m N 0,3 km/h (0 Bft)
04.02.2010 08:00 -2,9 C 96 % 1016,1 hPa 0,0 l/m N 0,0 km/h (0 Bft)
04.02.2010 09:00 -1,4 C 97 % 1015,9 hPa 0,0 l/m N 0,4 km/h (0 Bft)
04.02.2010 10:00 1,7 C 91 % 1015,9 hPa 0,0 l/m SW 2,3 km/h (1 Bft)
04.02.2010 11:00 3,7 C 79 % 1015,6 hPa 0,0 l/m S-SW 3,1 km/h (1 Bft)
04.02.2010 12:00 5,0 C 72 % 1015,1 hPa 0,0 l/m S-SW 3,6 km/h (1 Bft)
04.02.2010 13:00 5,6 C 69 % 1014,4 hPa 0,0 l/m S-SW 3,9 km/h (1 Bft)
04.02.2010 14:00 6,0 C 67 % 1014,0 hPa 0,0 l/m S-SW 3,2 km/h (1 Bft)
04.02.2010 15:00 6,7 C 62 % 1013,5 hPa 0,0 l/m O-SO 5,5 km/h (1 Bft)
04.02.2010 16:00 6,1 C 64 % 1013,1 hPa 0,0 l/m O-SO 3,5 km/h (1 Bft)
04.02.2010 17:00 2,9 C 77 % 1012,9 hPa 0,0 l/m O 2,1 km/h (1 Bft)
04.02.2010 18:00 0,9 C 88 % 1013,0 hPa 0,0 l/m N-NW 5,3 km/h (1 Bft)
04.02.2010 19:00 0,8 C 90 % 1013,0 hPa 0,0 l/m N-NW 4,7 km/h (1 Bft)
04.02.2010 20:00 -0,5 C 92 % 1012,6 hPa 0,0 l/m N 2,5 km/h (1 Bft)
04.02.2010 21:00 -1,3 C 94 % 1012,3 hPa 0,0 l/m N-NW 2,4 km/h (1 Bft)
04.02.2010 22:00 -1,7 C 94 % 1011,9 hPa 0,0 l/m N 1,3 km/h (1 Bft)
04.02.2010 23:00 -2,1 C 94 % 1011,2 hPa 0,0 l/m N 1,5 km/h (1 Bft)
05.02.2010 00:00 -2,2 C 96 % 1010,6 hPa 0,0 l/m N-NW 1,9 km/h (1 Bft)
05.02.2010 01:00 -2,2 C 96 % 1010,4 hPa 0,0 l/m N-NW 5,2 km/h (1 Bft)
05.02.2010 02:00 -2,0 C 96 % 1010,7 hPa 0,0 l/m N-NW 8,2 km/h (2 Bft)
05.02.2010 03:00 -2,1 C 97 % 1010,5 hPa 0,0 l/m N-NW 5,6 km/h (1 Bft)
05.02.2010 04:00 -2,1 C 97 % 1010,3 hPa 0,0 l/m N 4,4 km/h (1 Bft)
05.02.2010 05:00 -2,0 C 97 % 1010,0 hPa 0,0 l/m W-NW 3,1 km/h (1 Bft)
05.02.2010 06:00 -2,1 C 97 % 1009,7 hPa 0,0 l/m W-NW 3,1 km/h (1 Bft)
05.02.2010 07:00 -2,0 C 97 % 1009,4 hPa 0,0 l/m W-NW 3,7 km/h (1 Bft)
05.02.2010 08:00 -1,7 C 97 % 1009,3 hPa 0,0 l/m W-NW 5,1 km/h (1 Bft)
05.02.2010 09:00 -1,3 C 96 % 1009,3 hPa 0,0 l/m N-NW 4,8 km/h (1 Bft)
05.02.2010 10:00 -0,6 C 95 % 1009,2 hPa 0,0 l/m N-NW 7,0 km/h (2 Bft)
05.02.2010 11:00 0,1 C 95 % 1009,2 hPa 0,0 l/m N-NW 4,5 km/h (1 Bft)
05.02.2010 12:00 0,8 C 94 % 1008,7 hPa 0,2 l/m W-NW 3,5 km/h (1 Bft)
05.02.2010 13:00 1,4 C 95 % 1008,2 hPa 0,4 l/m N 1,1 km/h (0 Bft)
05.02.2010 14:00 2,2 C 95 % 1007,7 hPa 0,2 l/m W-NW 3,9 km/h (1 Bft)
05.02.2010 15:00 2,6 C 95 % 1007,8 hPa 0,6 l/m W-NW 2,4 km/h (1 Bft)
05.02.2010 16:00 2,4 C 94 % 1008,3 hPa 0,8 l/m W-NW 2,9 km/h (1 Bft)
05.02.2010 17:00 1,7 C 96 % 1008,8 hPa 0,6 l/m S-SW 9,1 km/h (2 Bft)
05.02.2010 18:00 1,3 C 97 % 1009,4 hPa 0,6 l/m S-SW 5,6 km/h (1 Bft)
05.02.2010 19:00 1,2 C 97 % 1010,0 hPa 0,2 l/m S-SW 6,7 km/h (2 Bft)
05.02.2010 20:00 0,7 C 97 % 1010,6 hPa 0,4 l/m S-SW 7,4 km/h (2 Bft)
05.02.2010 21:00 0,4 C 98 % 1011,0 hPa 2,4 l/m S-SW 6,5 km/h (2 Bft)
05.02.2010 22:00 0,3 C 98 % 1011,4 hPa 1,4 l/m S-SW 6,0 km/h (2 Bft)
05.02.2010 23:00 0,3 C 98 % 1011,5 hPa 1,0 l/m S-SW 3,5 km/h (1 Bft)
06.02.2010 00:00 0,3 C 98 % 1011,7 hPa 0,6 l/m N 0,0 km/h (0 Bft)
06.02.2010 01:00 0,3 C 98 % 1012,2 hPa 0,4 l/m N 0,0 km/h (0 Bft)
06.02.2010 02:00 0,4 C 98 % 1012,3 hPa 0,2 l/m N 0,0 km/h (0 Bft)
06.02.2010 03:00 0,4 C 98 % 1012,3 hPa 0,0 l/m N 0,0 km/h (0 Bft)
06.02.2010 04:00 0,4 C 98 % 1012,1 hPa 0,0 l/m S-SW 1,3 km/h (1 Bft)
06.02.2010 05:00 0,4 C 98 % 1011,9 hPa 0,0 l/m N 1,3 km/h (1 Bft)
06.02.2010 06:00 0,4 C 99 % 1011,6 hPa 0,0 l/m S-SW 4,1 km/h (1 Bft)
06.02.2010 07:00 0,5 C 99 % 1011,5 hPa 0,0 l/m S 3,5 km/h (1 Bft)
06.02.2010 08:00 0,7 C 99 % 1011,4 hPa 0,0 l/m N 1,2 km/h (1 Bft)
06.02.2010 09:00 1,0 C 99 % 1011,2 hPa 0,0 l/m N 1,1 km/h (0 Bft)
06.02.2010 10:00 1,5 C 99 % 1011,5 hPa 0,0 l/m N 0,4 km/h (0 Bft)
06.02.2010 11:00 2,2 C 99 % 1011,4 hPa 0,0 l/m N 1,1 km/h (0 Bft)
06.02.2010 12:00 2,8 C 96 % 1011,3 hPa 0,0 l/m S-SW 1,9 km/h (1 Bft)
06.02.2010 13:00 3,2 C 95 % 1011,3 hPa 0,0 l/m W-NW 2,8 km/h (1 Bft)
06.02.2010 14:00 3,5 C 94 % 1011,5 hPa 0,0 l/m NW 3,3 km/h (1 Bft)
06.02.2010 15:00 3,6 C 92 % 1011,7 hPa 0,0 l/m NW 2,5 km/h (1 Bft)
06.02.2010 16:00 3,8 C 92 % 1012,0 hPa 0,0 l/m NW 1,5 km/h (1 Bft)
06.02.2010 17:00 3,2 C 92 % 1012,6 hPa 0,0 l/m N 1,3 km/h (1 Bft)
06.02.2010 18:00 2,4 C 94 % 1012,9 hPa 0,0 l/m N 0,4 km/h (0 Bft)
06.02.2010 19:00 1,8 C 96 % 1013,2 hPa 0,0 l/m NW 0,9 km/h (0 Bft)
06.02.2010 20:00 1,6 C 96 % 1013,7 hPa 0,0 l/m N 0,4 km/h (0 Bft)
06.02.2010 21:00 1,4 C 97 % 1014,3 hPa 0,0 l/m N 0,9 km/h (0 Bft)
06.02.2010 22:00 1,3 C 97 % 1014,4 hPa 0,0 l/m NW 4,3 km/h (1 Bft)
06.02.2010 23:00 1,6 C 98 % 1014,6 hPa 0,0 l/m NW 3,2 km/h (1 Bft)
07.02.2010 00:00 1,5 C 98 % 1015,0 hPa 0,0 l/m NW 2,7 km/h (1 Bft)
07.02.2010 01:00 1,5 C 98 % 1015,1 hPa 0,2 l/m NW 4,1 km/h (1 Bft)
07.02.2010 02:00 1,4 C 98 % 1015,6 hPa 0,4 l/m NW 4,0 km/h (1 Bft)
07.02.2010 03:00 1,1 C 98 % 1015,9 hPa 0,2 l/m NW 3,3 km/h (1 Bft)
07.02.2010 04:00 0,7 C 98 % 1016,1 hPa 0,2 l/m N 2,5 km/h (1 Bft)
07.02.2010 05:00 0,7 C 98 % 1016,4 hPa 0,0 l/m N 2,4 km/h (1 Bft)
07.02.2010 06:00 0,6 C 98 % 1016,4 hPa 0,2 l/m NO 5,1 km/h (1 Bft)
07.02.2010 07:00 0,6 C 98 % 1016,7 hPa 0,2 l/m NO 6,7 km/h (2 Bft)
07.02.2010 08:00 0,6 C 97 % 1017,2 hPa 0,0 l/m NO 6,1 km/h (2 Bft)
07.02.2010 09:00 0,9 C 97 % 1017,7 hPa 0,0 l/m NO 6,0 km/h (2 Bft)
07.02.2010 10:00 1,2 C 96 % 1017,8 hPa 0,0 l/m NO 7,9 km/h (2 Bft)
07.02.2010 11:00 1,3 C 96 % 1018,0 hPa 0,0 l/m NO 7,4 km/h (2 Bft)
07.02.2010 12:00 1,8 C 93 % 1017,9 hPa 0,0 l/m O-NO 9,1 km/h (2 Bft)
07.02.2010 13:00 1,9 C 91 % 1017,8 hPa 0,0 l/m O-NO 8,3 km/h (2 Bft)
07.02.2010 14:00 1,5 C 91 % 1017,4 hPa 0,0 l/m NO 9,3 km/h (2 Bft)
07.02.2010 15:00 1,2 C 91 % 1017,2 hPa 0,0 l/m O 6,3 km/h (2 Bft)
07.02.2010 16:00 1,2 C 90 % 1016,9 hPa 0,0 l/m O-NO 5,3 km/h (1 Bft)
07.02.2010 17:00 0,9 C 91 % 1016,8 hPa 0,0 l/m O-NO 4,9 km/h (1 Bft)
07.02.2010 18:00 0,7 C 91 % 1016,8 hPa 0,0 l/m O-NO 3,6 km/h (1 Bft)
07.02.2010 19:00 0,5 C 91 % 1016,7 hPa 0,0 l/m O-NO 5,1 km/h (1 Bft)
07.02.2010 20:00 0,2 C 90 % 1016,6 hPa 0,0 l/m O-NO 6,8 km/h (2 Bft)
07.02.2010 21:00 0,1 C 87 % 1016,1 hPa 0,0 l/m O 9,4 km/h (2 Bft)
07.02.2010 22:00 -0,0 C 84 % 1015,4 hPa 0,0 l/m O 4,8 km/h (1 Bft)
07.02.2010 23:00 -0,8 C 86 % 1014,8 hPa 0,0 l/m N 0,5 km/h (0 Bft)
Min-Datum _ 01.02.10 04.02.10 05.02.10 - - 01.02.10
_ Min-Zeit 01:10 15:55 14:25 - - 01:30
Minimum _ -4,7 C 59 % 1007,5 hPa - - 0,0 km/h (0 Bft)
Max-Datum _ 04.02.10 05.02.10 02.02.10 05.02.10 - 03.02.10
_ Max-Zeit 15:35 15:30 08:25 21:20 - 03:45
Maximum _ 6,8 C 100 % 1021,1 hPa 2,4 l/m - 64,4 km/h
SW (8 Bft)
Durchschnitt _ 0,1 C 90 % 1014,0 hPa #13,8 l/m W-SW 13,8 km/h (3 Bft)